| time (UTC) | temp F | wind direction | speed MPH | gust MPH | rain 1hr in | rain 24hr in | rain mn in | humidity % | barometer mb |
| 20260902194504 | 96 | 229 | 6.0 | 10.0 | 0.00 | 0.00 | 0.00 | 53 | 1014.2 |
| 20260902193005 | 96 | 242 | 6.0 | 13.0 | 0.00 | 0.00 | 0.00 | 56 | 1014.2 |
| 20260902192504 | 95 | 242 | 6.0 | 8.0 | 0.00 | 0.00 | 0.00 | 57 | 1014.3 |
| 20260902192005 | 95 | 213 | 5.0 | 12.0 | 0.00 | 0.00 | 0.00 | 55 | 1014.2 |
| 20260902191005 | 94 | 244 | 8.0 | 12.0 | 0.00 | 0.00 | 0.00 | 53 | 1014.3 |
| 20260902190005 | 94 | 212 | 8.0 | 13.0 | 0.00 | 0.00 | 0.00 | 56 | 1014.3 |
| 20260902185505 | 94 | 218 | 5.0 | 8.0 | 0.00 | 0.00 | 0.00 | 56 | 1014.2 |
| 20260902185004 | 93 | 208 | 8.0 | 13.0 | 0.00 | 0.00 | 0.00 | 53 | 1014.4 |
| 20260902184004 | 95 | 223 | 5.0 | 10.0 | 0.00 | 0.00 | 0.00 | 58 | 1014.4 |
| 20260902183505 | 94 | 253 | 7.0 | 12.0 | 0.00 | 0.00 | 0.00 | 54 | 1014.4 |
| 20260902181005 | 93 | 233 | 5.0 | 8.0 | 0.00 | 0.00 | 0.00 | 56 | 1014.6 |
| 20260902180505 | 93 | 251 | 7.0 | 12.0 | 0.00 | 0.00 | 0.00 | 57 | 1014.6 |
| 20260902173505 | 92 | 207 | 6.0 | 10.0 | 0.00 | 0.00 | 0.00 | 60 | 1014.9 |
| 20260902170505 | 90 | 205 | 4.0 | 10.0 | 0.00 | 0.00 | 0.00 | 64 | 1015.2 |
| 20260902170005 | 90 | 199 | 7.0 | 12.0 | 0.00 | 0.00 | 0.00 | 64 | 1015.1 |
| 20260902165005 | 89 | 213 | 6.0 | 12.0 | 0.00 | 0.00 | 0.00 | 67 | 1015.1 |
| 20260902164504 | 89 | 181 | 7.0 | 10.0 | 0.00 | 0.00 | 0.00 | 65 | 1015.3 |
| 20260902164005 | 89 | 195 | 5.0 | 7.0 | 0.00 | 0.00 | 0.00 | 66 | 1015.5 |
| 20260902163004 | 89 | 202 | 5.0 | 7.0 | 0.00 | 0.00 | 0.00 | 65 | 1015.4 |
| 20260902162505 | 89 | 227 | 3.0 | 7.0 | 0.00 | 0.00 | 0.00 | 67 | 1015.4 |
| 20260902162006 | 89 | 219 | 5.0 | 9.0 | 0.00 | 0.00 | 0.00 | 66 | 1015.3 |
| 20260902161005 | 87 | 202 | 6.0 | 10.0 | 0.00 | 0.00 | 0.00 | 69 | 1015.3 |
| 20260902155504 | 87 | 174 | 7.0 | 9.0 | 0.00 | 0.00 | 0.00 | 70 | 1015.2 |
| 20260902154504 | 87 | 213 | 3.0 | 7.0 | 0.00 | 0.00 | 0.00 | 71 | 1015.1 |
| 20260902154005 | 86 | 218 | 3.0 | 7.0 | 0.00 | 0.00 | 0.00 | 71 | 1015.0 |
| 20260902153004 | 86 | 243 | 4.0 | 7.0 | 0.00 | 0.00 | 0.00 | 72 | 1015.0 |
| 20260902152505 | 85 | 231 | 4.0 | 5.0 | 0.00 | 0.00 | 0.00 | 71 | 1015.0 |
| 20260902152005 | 85 | 224 | 2.0 | 3.0 | 0.00 | 0.00 | 0.00 | 73 | 1015.0 |
| 20260902150004 | 83 | 227 | 2.0 | 3.0 | 0.00 | 0.00 | 0.00 | 75 | 1015.0 |
| 20260902145504 | 82 | 187 | 2.0 | 5.0 | 0.00 | 0.00 | 0.00 | 76 | 1015.0 |
| 20260902144504 | 81 | 190 | 5.0 | 8.0 | 0.00 | 0.00 | 0.00 | 77 | 1015.0 |
| 20260902143504 | 82 | 181 | 5.0 | 7.0 | 0.00 | 0.00 | 0.00 | 77 | 1014.9 |
| 20260902143004 | 81 | 182 | 4.0 | 6.0 | 0.00 | 0.00 | 0.00 | 77 | 1014.9 |
| 20260902142504 | 81 | 181 | 3.0 | 6.0 | 0.00 | 0.00 | 0.00 | 78 | 1015.0 |
| 20260902142005 | 81 | 186 | 5.0 | 6.0 | 0.00 | 0.00 | 0.00 | 76 | 1015.0 |
| 20260902141504 | 81 | 184 | 3.0 | 6.0 | 0.00 | 0.00 | 0.00 | 77 | 1015.0 |
| 20260902141004 | 81 | 181 | 5.0 | 8.0 | 0.00 | 0.00 | 0.00 | 76 | 1015.1 |
| 20260902140504 | 80 | 194 | 3.0 | 5.0 | 0.00 | 0.00 | 0.00 | 78 | 1015.1 |
| 20260902140005 | 80 | 189 | 5.0 | 7.0 | 0.00 | 0.00 | 0.00 | 77 | 1015.1 |
| 20260902135504 | 80 | 168 | 5.0 | 8.0 | 0.00 | 0.00 | 0.00 | 77 | 1015.1 |
| 20260902135004 | 80 | 182 | 5.0 | 7.0 | 0.00 | 0.00 | 0.00 | 77 | 1015.1 |
| 20260902134504 | 80 | 189 | 3.0 | 5.0 | 0.00 | 0.00 | 0.00 | 79 | 1015.1 |
| 20260902134005 | 79 | 152 | 3.0 | 5.0 | 0.00 | 0.00 | 0.00 | 79 | 1015.1 |
| 20260902133004 | 78 | 154 | 3.0 | 5.0 | 0.00 | 0.00 | 0.00 | 81 | 1015.3 |
| 20260902132504 | 77 | 158 | 2.0 | 3.0 | 0.00 | 0.00 | 0.00 | 82 | 1015.5 |
| 20260902131504 | 76 | 194 | 1.0 | 3.0 | 0.00 | 0.00 | 0.00 | 84 | 1015.5 |
| 20260902131004 | 76 | 185 | 2.0 | 3.0 | 0.00 | 0.00 | 0.00 | 83 | 1015.5 |
| 20260902125005 | 76 | 152 | 3.0 | 3.0 | 0.00 | 0.00 | 0.00 | 83 | 1015.8 |
| 20260902124505 | 75 | 148 | 1.0 | 2.0 | 0.00 | 0.00 | 0.00 | 84 | 1015.9 |
| 20260902122004 | 72 | 218 | 2.0 | 3.0 | 0.00 | 0.00 | 0.00 | 89 | 1015.9 |
| 20260902121505 | 71 | 351 | 0.0 | 2.0 | 0.00 | 0.00 | 0.00 | 90 | 1015.7 |
| 20260902121005 | 71 | 351 | 0.0 | 2.0 | 0.00 | 0.00 | 0.00 | 89 | 1015.7 |
| 20260902115504 | 72 | 192 | 0.0 | 2.0 | 0.00 | 0.00 | 0.00 | 87 | 1015.9 |
| 20260902115004 | 72 | 192 | 1.0 | 3.0 | 0.00 | 0.00 | 0.00 | 87 | 1015.8 |
| 20260902114004 | 72 | 270 | 2.0 | 5.0 | 0.00 | 0.00 | 0.00 | 87 | 1016.0 |
| 20260902111004 | 71 | 150 | 3.0 | 3.0 | 0.00 | 0.00 | 0.00 | 88 | 1014.8 |
| 20260902110504 | 71 | 146 | 2.0 | 3.0 | 0.00 | 0.00 | 0.00 | 88 | 1014.8 |
| 20260902110007 | 71 | 163 | 3.0 | 3.0 | 0.00 | 0.00 | 0.00 | 88 | 1014.8 |
| 20260902105004 | 71 | 163 | 2.0 | 2.0 | 0.00 | 0.00 | 0.00 | 87 | 1014.8 |
| 20260902104004 | 71 | 163 | 2.0 | 3.0 | 0.00 | 0.00 | 0.00 | 87 | 1014.9 |
| 20260902103505 | 71 | 163 | 2.0 | 2.0 | 0.00 | 0.00 | 0.00 | 87 | 1014.9 |
| 20260902102504 | 71 | 163 | 2.0 | 3.0 | 0.00 | 0.00 | 0.00 | 87 | 1014.9 |
| 20260902101005 | 71 | 157 | 2.0 | 2.0 | 0.00 | 0.00 | 0.00 | 87 | 1014.9 |
| 20260902100504 | 71 | 154 | 1.0 | 3.0 | 0.00 | 0.00 | 0.00 | 87 | 1014.9 |
| 20260902100004 | 71 | 147 | 3.0 | 3.0 | 0.00 | 0.00 | 0.00 | 87 | 1014.8 |
| 20260902095504 | 71 | 151 | 2.0 | 3.0 | 0.00 | 0.00 | 0.00 | 87 | 1014.8 |
| 20260902092504 | 71 | 152 | 2.0 | 3.0 | 0.00 | 0.00 | 0.00 | 86 | 1015.1 |
| 20260902090504 | 72 | 162 | 2.0 | 2.0 | 0.00 | 0.00 | 0.00 | 85 | 1015.4 |
| 20260902085004 | 72 | 182 | 2.0 | 3.0 | 0.00 | 0.00 | 0.00 | 85 | 1015.4 |
| 20260902084504 | 72 | 184 | 1.0 | 2.0 | 0.00 | 0.00 | 0.00 | 85 | 1015.3 |
| 20260902083504 | 72 | 172 | 2.0 | 3.0 | 0.00 | 0.00 | 0.00 | 86 | 1015.1 |
| 20260902082504 | 72 | 181 | 1.0 | 2.0 | 0.00 | 0.00 | 0.00 | 85 | 1015.1 |
| 20260902082004 | 72 | 181 | 1.0 | 2.0 | 0.00 | 0.00 | 0.00 | 85 | 1015.1 |
| 20260902081504 | 72 | 181 | 1.0 | 2.0 | 0.00 | 0.00 | 0.00 | 85 | 1015.0 |
| 20260902081004 | 72 | 181 | 1.0 | 2.0 | 0.00 | 0.00 | 0.00 | 85 | 1014.9 |
| 20260902080004 | 73 | 181 | 2.0 | 3.0 | 0.00 | 0.00 | 0.00 | 85 | 1014.9 |
| 20260902075504 | 73 | 181 | 2.0 | 3.0 | 0.00 | 0.00 | 0.00 | 85 | 1014.8 |
| 20260902075004 | 73 | 208 | 1.0 | 3.0 | 0.00 | 0.00 | 0.00 | 84 | 1014.8 |
| 20260902074504 | 73 | 209 | 1.0 | 2.0 | 0.00 | 0.00 | 0.00 | 84 | 1014.9 |
| 20260902074004 | 73 | 198 | 1.0 | 2.0 | 0.00 | 0.00 | 0.00 | 85 | 1014.8 |
| 20260902073004 | 72 | 153 | 1.0 | 1.0 | 0.00 | 0.00 | 0.00 | 86 | 1014.7 |
| 20260902072504 | 72 | 153 | 1.0 | 2.0 | 0.00 | 0.00 | 0.00 | 86 | 1014.6 |
| 20260902072004 | 72 | 153 | 2.0 | 3.0 | 0.00 | 0.00 | 0.00 | 86 | 1014.4 |
| 20260902070504 | 73 | 169 | 1.0 | 3.0 | 0.00 | 0.00 | 0.00 | 85 | 1014.7 |
| 20260902070006 | 73 | 167 | 2.0 | 3.0 | 0.00 | 0.00 | 0.00 | 85 | 1014.7 |
| 20260902064504 | 73 | 190 | 1.0 | 3.0 | 0.00 | 0.00 | 0.00 | 85 | 1014.6 |
| 20260902062504 | 74 | 186 | 2.0 | 3.0 | 0.00 | 0.00 | 0.00 | 84 | 1014.8 |
| 20260902061004 | 74 | 188 | 2.0 | 5.0 | 0.00 | 0.00 | 0.00 | 84 | 1014.7 |
| 20260902060004 | 74 | 208 | 2.0 | 5.0 | 0.00 | 0.00 | 0.00 | 83 | 1014.8 |
| 20260902055503 | 75 | 217 | 3.0 | 5.0 | 0.00 | 0.00 | 0.00 | 83 | 1014.8 |
| 20260902054504 | 75 | 212 | 3.0 | 5.0 | 0.00 | 0.00 | 0.00 | 84 | 1014.7 |
| 20260902054004 | 75 | 186 | 4.0 | 8.0 | 0.00 | 0.00 | 0.00 | 84 | 1014.7 |
| 20260902053503 | 74 | 175 | 5.0 | 8.0 | 0.00 | 0.00 | 0.00 | 85 | 1014.7 |
| 20260902053003 | 74 | 182 | 5.0 | 7.0 | 0.00 | 0.00 | 0.00 | 85 | 1014.8 |
| 20260902052504 | 74 | 169 | 5.0 | 8.0 | 0.00 | 0.00 | 0.00 | 86 | 1014.8 |
| 20260902051503 | 74 | 166 | 3.0 | 6.0 | 0.00 | 0.00 | 0.00 | 87 | 1014.9 |
| 20260902051004 | 74 | 164 | 3.0 | 5.0 | 0.00 | 0.00 | 0.00 | 88 | 1014.9 |
| 20260902050504 | 74 | 163 | 2.0 | 3.0 | 0.00 | 0.00 | 0.00 | 87 | 1014.9 |
| 20260902050005 | 74 | 166 | 2.0 | 3.0 | 0.00 | 0.00 | 0.00 | 87 | 1015.0 |
| 20260902045503 | 75 | 179 | 2.0 | 3.0 | 0.00 | 0.00 | 0.00 | 87 | 1015.1 |
| 20260902045004 | 75 | 175 | 2.0 | 5.0 | 0.00 | 0.00 | 0.00 | 87 | 1015.0 |
| 20260902044504 | 75 | 184 | 2.0 | 3.0 | 0.00 | 0.00 | 0.00 | 88 | 1015.1 |
| 20260902043503 | 74 | 159 | 2.0 | 3.0 | 0.00 | 0.00 | 0.00 | 89 | 1015.0 |
| 20260902043005 | 74 | 177 | 1.0 | 3.0 | 0.00 | 0.00 | 0.00 | 88 | 1014.9 |
| 20260902042505 | 75 | 175 | 1.0 | 2.0 | 0.00 | 0.00 | 0.00 | 88 | 1014.8 |
| 20260902042005 | 75 | 175 | 1.0 | 2.0 | 0.00 | 0.00 | 0.00 | 88 | 1014.9 |
| 20260902041506 | 75 | 175 | 1.0 | 2.0 | 0.00 | 0.00 | 0.00 | 89 | 1014.9 |
| 20260902040506 | 75 | 166 | 1.0 | 3.0 | 0.00 | 0.00 | 0.00 | 88 | 1015.0 |
| 20260902035505 | 76 | 187 | 1.0 | 2.0 | 0.00 | 0.00 | 0.00 | 87 | 1015.0 |
| 20260902034006 | 76 | 187 | 1.0 | 2.0 | 0.00 | 0.00 | 0.00 | 86 | 1015.0 |
| 20260902033506 | 76 | 187 | 2.0 | 2.0 | 0.00 | 0.00 | 0.00 | 86 | 1015.0 |
| 20260902033006 | 77 | 187 | 2.0 | 3.0 | 0.00 | 0.00 | 0.00 | 86 | 1015.0 |
| 20260902032505 | 77 | 183 | 2.0 | 3.0 | 0.00 | 0.00 | 0.00 | 86 | 1014.9 |
| 20260902032005 | 77 | 187 | 2.0 | 3.0 | 0.00 | 0.00 | 0.00 | 86 | 1014.9 |
| 20260902031505 | 77 | 194 | 1.0 | 2.0 | 0.00 | 0.00 | 0.00 | 86 | 1014.8 |
| 20260902031006 | 77 | 165 | 1.0 | 2.0 | 0.00 | 0.00 | 0.00 | 86 | 1014.8 |
| 20260902030505 | 77 | 165 | 1.0 | 2.0 | 0.00 | 0.00 | 0.00 | 86 | 1014.7 |
| 20260902030005 | 77 | 164 | 2.0 | 3.0 | 0.00 | 0.00 | 0.00 | 87 | 1014.6 |
| 20260902025506 | 77 | 165 | 2.0 | 3.0 | 0.00 | 0.00 | 0.00 | 87 | 1014.6 |
| 20260902025006 | 77 | 170 | 1.0 | 3.0 | 0.00 | 0.00 | 0.00 | 87 | 1014.6 |
| 20260902024505 | 77 | 154 | 2.0 | 3.0 | 0.00 | 0.00 | 0.00 | 86 | 1014.6 |
| 20260902022006 | 78 | 182 | 2.0 | 5.0 | 0.00 | 0.00 | 0.00 | 84 | 1014.5 |
| 20260902020505 | 79 | 178 | 3.0 | 5.0 | 0.00 | 0.00 | 0.00 | 83 | 1014.5 |
| 20260902020006 | 79 | 178 | 3.0 | 5.0 | 0.00 | 0.00 | 0.00 | 83 | 1014.4 |
| 20260902015006 | 80 | 164 | 3.0 | 5.0 | 0.00 | 0.00 | 0.00 | 83 | 1014.4 |
| 20260902014505 | 80 | 161 | 3.0 | 5.0 | 0.00 | 0.00 | 0.00 | 83 | 1014.3 |
| 20260902012006 | 81 | 155 | 3.0 | 6.0 | 0.00 | 0.00 | 0.00 | 81 | 1014.2 |
| 20260902011005 | 81 | 142 | 3.0 | 3.0 | 0.00 | 0.00 | 0.00 | 81 | 1014.0 |
| 20260902005505 | 82 | 158 | 2.0 | 3.0 | 0.00 | 0.00 | 0.00 | 78 | 1014.0 |
| 20260902005006 | 83 | 158 | 2.0 | 5.0 | 0.00 | 0.00 | 0.00 | 78 | 1014.0 |
| 20260902004006 | 83 | 165 | 2.0 | 3.0 | 0.00 | 0.00 | 0.00 | 76 | 1014.0 |
| 20260902002005 | 85 | 183 | 2.0 | 3.0 | 0.00 | 0.00 | 0.00 | 72 | 1013.9 |
| 20260902000005 | 87 | 178 | 3.0 | 7.0 | 0.00 | 0.00 | 0.00 | 68 | 1014.1 |
| 20260901235505 | 87 | 184 | 3.0 | 7.0 | 0.00 | 0.00 | 0.00 | 68 | 1014.1 |
| 20260901235005 | 88 | 192 | 4.0 | 8.0 | 0.00 | 0.00 | 0.00 | 68 | 1014.2 |
| 20260901234505 | 88 | 195 | 6.0 | 10.0 | 0.00 | 0.00 | 0.00 | 68 | 1014.0 |
| 20260901234005 | 88 | 185 | 4.0 | 9.0 | 0.00 | 0.00 | 0.00 | 68 | 1014.0 |
| 20260901232005 | 90 | 182 | 5.0 | 8.0 | 0.00 | 0.00 | 0.00 | 66 | 1014.2 |
| 20260901230005 | 91 | 188 | 3.0 | 7.0 | 0.00 | 0.00 | 0.00 | 64 | 1014.0 |
| 20260901225505 | 91 | 189 | 5.0 | 10.0 | 0.00 | 0.00 | 0.00 | 63 | 1014.0 |
| 20260901225005 | 91 | 190 | 5.0 | 8.0 | 0.00 | 0.00 | 0.00 | 63 | 1014.0 |
| 20260901224505 | 91 | 202 | 5.0 | 6.0 | 0.00 | 0.00 | 0.00 | 63 | 1014.2 |
| 20260901222505 | 92 | 198 | 6.0 | 10.0 | 0.00 | 0.00 | 0.00 | 61 | 1014.2 |
| 20260901222005 | 92 | 194 | 5.0 | 8.0 | 0.00 | 0.00 | 0.00 | 60 | 1014.1 |
| 20260901221505 | 92 | 191 | 6.0 | 10.0 | 0.00 | 0.00 | 0.00 | 60 | 1014.3 |
| 20260901220505 | 93 | 190 | 3.0 | 8.0 | 0.00 | 0.00 | 0.00 | 62 | 1014.3 |
| 20260901215005 | 93 | 202 | 6.0 | 9.0 | 0.00 | 0.00 | 0.00 | 60 | 1014.2 |
| 20260901214505 | 93 | 182 | 7.0 | 10.0 | 0.00 | 0.00 | 0.00 | 60 | 1014.2 |
| 20260901213005 | 93 | 220 | 3.0 | 7.0 | 0.00 | 0.00 | 0.00 | 61 | 1014.2 |
| 20260901212504 | 93 | 197 | 3.0 | 6.0 | 0.00 | 0.00 | 0.00 | 60 | 1014.3 |
| 20260901212005 | 93 | 213 | 4.0 | 8.0 | 0.00 | 0.00 | 0.00 | 62 | 1014.3 |
| 20260901210505 | 94 | 174 | 3.0 | 7.0 | 0.00 | 0.00 | 0.00 | 60 | 1014.5 |
| 20260901210005 | 94 | 213 | 5.0 | 10.0 | 0.00 | 0.00 | 0.00 | 60 | 1014.4 |
| 20260901205505 | 94 | 222 | 4.0 | 8.0 | 0.00 | 0.00 | 0.00 | 62 | 1014.5 |
| 20260901205005 | 94 | 198 | 4.0 | 7.0 | 0.00 | 0.00 | 0.00 | 61 | 1014.6 |
| 20260901204505 | 94 | 184 | 3.0 | 7.0 | 0.00 | 0.00 | 0.00 | 62 | 1014.6 |
| 20260901202005 | 93 | 211 | 6.0 | 9.0 | 0.00 | 0.00 | 0.00 | 60 | 1014.8 |
| 20260901201505 | 93 | 211 | 6.0 | 9.0 | 0.00 | 0.00 | 0.00 | 62 | 1014.9 |
| 20260901201005 | 93 | 187 | 5.0 | 10.0 | 0.00 | 0.00 | 0.00 | 63 | 1014.9 |
| 20260901200005 | 93 | 208 | 4.0 | 6.0 | 0.00 | 0.00 | 0.00 | 65 | 1014.9 |